This is the latest recevied weather packets stored in our database for station/object KI4BIY. If no packets are shown the sender has not sent any weather packets the latest 10 day(s).
| Time | Temp. | Humidity | Pressure | Rain* | Wind** | Luminosity | Snow |
|---|---|---|---|---|---|---|---|
| 1777901053 | 19.44° C | 70% | 1013.1 hPa | 0 mm | - | 234 W/m² | - |
| 1777900750 | 19.44° C | 70% | 1013 hPa | 0 mm | - | 196 W/m² | - |
| 1777900447 | 18.89° C | 71% | 1012.8 hPa | 0 mm | - | 162 W/m² | - |
| 1777900144 | 18.89° C | 71% | 1012.8 hPa | 0 mm | - | 134 W/m² | - |
| 1777899840 | 18.89° C | 71% | 1013.1 hPa | 0 mm | - | 127 W/m² | - |
| 1777899537 | 18.33° C | 72% | 1012.8 hPa | 0 mm | - | 117 W/m² | - |
| 1777899235 | 18.33° C | 72% | 1013 hPa | 0 mm | - | 138 W/m² | - |
| 1777898932 | 17.78° C | 75% | 1013 hPa | 0 mm | - | 128 W/m² | - |
| 1777898629 | 17.22° C | 75% | 1012.9 hPa | 0 mm | - | 120 W/m² | - |
| 1777898327 | 16.67° C | 76% | 1012.9 hPa | 0 mm | - | 75 W/m² | - |
| 1777898024 | 16.67° C | 76% | 1013.1 hPa | 0 mm | - | 36 W/m² | - |
| 1777897720 | 16.67° C | 77% | 1013.1 hPa | 0 mm | - | 29 W/m² | - |
| 1777897417 | 16.11° C | 77% | 1012.8 hPa | 0 mm | - | 34 W/m² | - |
| 1777897112 | 16.11° C | 79% | 1012.9 hPa | 0 mm | - | 39 W/m² | - |
| 1777896809 | 15.56° C | 79% | 1013 hPa | 0 mm | - | 33 W/m² | - |
| 1777896506 | 15.56° C | 79% | 1012.5 hPa | 0 mm | - | 30 W/m² | - |
| 1777896203 | 15° C | 81% | 1012.5 hPa | 0 mm | - | 25 W/m² | - |
| 1777895901 | 15° C | 80% | 1012.7 hPa | 0 mm | - | 17 W/m² | - |
| 1777895599 | 15° C | 81% | 1012.7 hPa | 0 mm | - | 12 W/m² | - |
| 1777895296 | 15° C | 80% | 1012.6 hPa | 0 mm | - | 10 W/m² | - |
| 1777894994 | 15° C | 80% | 1012.6 hPa | 0 mm | - | 8 W/m² | - |
| 1777894691 | 15° C | 80% | 1012.4 hPa | 0 mm | - | 9 W/m² | - |
| 1777894387 | 15° C | 79% | 1012.4 hPa | 0 mm | - | 6 W/m² | - |
| 1777894085 | 15° C | 79% | 1012.4 hPa | 0 mm | - | 5 W/m² | - |
| 1777893781 | 15° C | 79% | 1012.5 hPa | 0 mm | - | 3 W/m² | - |
* Rain latest hour (hover to see other rain measurements)
** Current wind speed in m/s (hover to see current wind gust speed)